User: anonymous   Login
Location: *
(35.2348°S, 91.3916°E)
Time: 08:43:24
(UTC+00:00)
Language:

Cosmos 1992 Rocket - Orbit

View from above orbital plane
View from above orbital plane
View from above satellite
View from above satellite

Ground track
Ground track

The orbit data is extracted from the following two-line orbital elements,

1 19770U 89005B   19340.91718045 -.00000024 +00000-0 +72493-6 0  9996
2 19770 074.0427 185.4060 0004183 030.2314 070.5273 14.38820943616114
Epoch (UTC): 06 December 2019 22:00:44
Eccentricity: 0.0004183
inclination: 74.0427°
perigee height: 759 km
apogee height: 765 km
right ascension of ascending node: 185.4060°
argument of perigee: 30.2314°
revolutions per day: 14.38820943
mean anomaly at epoch: 70.5273°
orbit number at epoch: 61611

The dashed part of the orbit path shows where the satellite is in the earth's shadow,  

DLR